[[{"header":{"parameterUnit":"m.s-1","parameterCategory":1,"la1":30.2991,"la2":30.254,"lo1":-89.0895,"lo2":-89.0444,"dy":0.0017,"dx":0.0017,"nx":28,"ny":28,"refTime":"2023-11-03T09:00:00:Z","depth":0,"parameterNumber":2,"parameterNumberName":"U-component_of_WINDS"},"data":[0,0,0,0,0,0,0,0,0,0,0,0,0,0,0,0,0,0,0,0,0,0,0,0,0,0,0,0,0,0,0,0,0,0,0,0,0,0,0,0,0,0,0,0,0,0,0,0,0,0,0,0,0,0,0,0,0,0,-2.0425,-2.0425,0,-2.0448,-2.0448,-2.0448,-2.0395,-2.0393,-2.0392,-2.039,-2.0413,-2.0415,-2.0417,0,0,0,0,0,0,0,0,0,0,0,0,0,-2.0337,-2.0338,-2.0425,-2.0426,-2.0426,-2.0448,-2.0448,-2.0448,-2.0395,-2.0393,-2.0391,-2.0389,-2.0412,-2.0415,-2.0417,0,0,0,0,0,0,0,0,0,0,0,0,0,-2.0369,-2.0339,-2.0425,-2.0402,-2.04,-2.0448,-2.0448,-2.0448,-2.0396,-2.0393,-2.0391,-2.0388,-2.0411,-2.0415,-2.0418,-2.0489,0,0,-2.0428,-2.0429,0,0,0,0,0,0,0,0,-2.0367,-2.0372,-2.0405,-2.0404,-2.0402,-2.0416,-2.0425,-2.0462,-2.0396,-2.0397,-2.039,-2.0387,-2.0416,-2.0419,-2.0428,-2.049,-2.0491,-2.0428,-2.043,-2.0432,-2.0432,0,0,0,0,0,0,0,-2.0365,-2.0371,-2.0434,-2.0406,-2.0404,-2.039,-2.0392,-2.0432,-2.0421,-2.0397,-2.0393,-2.0397,-2.0415,-2.0425,-2.0429,-2.0491,-2.0428,-2.0431,-2.0433,-2.0434,-2.0613,-2.0615,0,0,0,0,0,0,-2.0366,-2.0369,-2.0433,-2.0435,-2.0378,-2.0394,-2.0396,-2.0414,-2.042,-2.0419,-2.0399,-2.0394,-2.0421,-2.0425,-2.0429,-2.0514,-2.0432,-2.0435,-2.0436,-2.061,-2.0613,-2.0616,0,0,0,0,0,0,-2.0364,-2.0372,-2.0432,-2.0401,-2.0408,-2.0398,-2.0419,-2.0416,-2.0427,-2.0421,-2.0419,-2.0412,-2.0419,-2.0425,-2.0475,-2.0514,-2.0436,-2.0439,-2.0607,-2.0611,-2.0615,-2.0683,0,0,0,0,0,0,-2.0362,-2.0371,-2.0398,-2.0402,-2.041,-2.0478,-2.0421,-2.0418,-2.0432,-2.0426,-2.0433,-2.0432,-2.0418,-2.047,-2.0478,-2.0517,-2.0442,-2.0603,-2.0609,-2.0614,-2.0677,-2.0689,-2.0699,0,0,0,0,0,-2.0359,-2.0416,-2.04,-2.0408,-2.0443,-2.048,-2.0484,-2.0467,-2.0436,-2.0463,-2.0459,-2.0432,-2.0508,-2.0476,-2.0484,-2.0525,-2.0601,-2.0607,-2.0613,-2.0672,-2.0687,-2.0699,0,0,0,0,0,0,-2.0417,-2.0416,-2.0398,-2.0459,-2.047,-2.0471,-2.0505,-2.0482,-2.0503,-2.0496,-2.0473,-2.0475,-2.053,-2.0532,-2.0496,-2.0594,-2.0549,-2.0557,-2.0591,-2.0605,-2.0615,-2.0615,-2.0444,0,0,0,0,0,-2.0437,-2.0468,-2.0465,-2.0519,-2.0525,-2.0514,-2.053,-2.0515,-2.0526,-2.053,-2.053,-2.0542,-2.0568,-2.0586,-2.061,-2.0677,-2.0678,-2.0709,-2.072,-2.0729,-2.0737,-2.0773,-2.0787,-2.0637,-2.0637,-2.0637,0,0,-2.0479,-2.0482,-2.0503,-2.0531,-2.0538,-2.057,-2.0518,-2.0554,-2.0578,-2.0535,-2.0583,-2.0584,-2.0595,-2.0654,-2.068,-2.0657,-2.0778,-2.0737,-2.0744,-2.0747,-2.0781,-2.0795,-2.0808,-2.0641,-2.064,-2.064,0,0,-2.0572,-2.0577,-2.0623,-2.0631,-2.0642,-2.0634,-2.0646,-2.065,-2.0649,-2.0696,-2.0665,-2.0693,-2.0739,-2.0749,-2.076,-2.0856,-2.0832,-2.0865,-2.0922,-2.0958,-2.097,-2.0981,-2.1017,-2.103,-2.0872,-2.0872,-2.0872,0,-2.0623,-2.067,-2.065,-2.0688,-2.0702,-2.0664,-2.0711,-2.072,-2.0738,-2.0749,-2.0723,-2.078,-2.0785,-2.0846,-2.087,-2.088,-2.0892,-2.0865,-2.097,-2.098,-2.099,-2.1024,-2.1037,-2.0876,-2.0876,-2.0875,-2.0875,0,-2.0733,-2.0766,-2.0801,-2.0821,-2.0838,-2.0881,-2.0867,-2.0887,-2.0871,-2.0866,-2.0915,-2.0919,-2.0944,-2.0957,-2.0942,-2.1017,-2.1002,-2.0974,-2.0928,-2.1008,-2.104,-2.1053,-2.0882,-2.0881,-2.0879,-2.0878,0,0,-2.0864,-2.0872,-2.0886,-2.0894,-2.0904,-2.0929,-2.097,-2.0994,-2.1013,-2.1026,-2.1061,-2.11,-2.1074,-2.1086,-2.1071,-2.1103,-2.1181,-2.107,-2.107,-2.1092,-2.1266,-2.1289,-2.1304,-2.1164,-2.1167,-2.1168,-2.1265,0,-2.0958,-2.1028,-2.1011,-2.1081,-2.1112,-2.1077,-2.1113,-2.1122,-2.1119,-2.1145,-2.114,-2.117,-2.1132,-2.1139,-2.1168,-2.1166,-2.1216,-2.1158,-2.1197,-2.1199,-2.1197,-2.1321,-2.1345,-2.1436,-2.1277,-2.128,-2.1281,0,-2.1076,-2.1095,-2.1169,-2.1174,-2.1186,-2.1219,-2.124,-2.1265,-2.1275,-2.127,-2.1285,-2.1264,-2.1304,-2.1257,-2.1314,-2.1275,-2.1289,-2.129,-2.1293,-2.1298,-2.1246,-2.133,-2.1465,-2.1479,-2.13,-2.1299,-2.1297,0,-2.1167,-2.1211,-2.1261,-2.1269,-2.1276,-2.13,-2.1304,-2.1311,-2.1328,-2.1346,-2.1356,-2.1379,-2.1392,-2.1411,-2.1397,-2.1363,-2.1456,-2.1407,-2.1454,-2.1455,-2.1476,-2.1476,-2.1617,-2.1483,-2.1483,-2.1483,-2.1482,0,-2.1274,-2.1321,-2.1302,-2.1333,-2.1384,-2.1364,-2.1415,-2.1415,-2.1422,-2.1453,-2.1423,-2.1452,-2.1431,-2.1459,-2.1448,-2.1497,-2.1502,-2.15,-2.1497,-2.1504,-2.1505,-2.1515,-2.1509,-2.1486,-2.1485,-2.1485,-2.1484,0,-2.1385,-2.1374,-2.1427,-2.1429,-2.143,-2.1468,-2.147,-2.1499,-2.1493,-2.1532,-2.154,-2.1531,-2.1562,-2.1549,-2.1581,-2.1574,-2.1638,-2.1625,-2.1635,-2.1632,-2.168,-2.1677,-2.1835,-2.1855,-2.1706,-2.1708,-2.1709,0,-2.1455,-2.1491,-2.1497,-2.1515,-2.1521,-2.1551,-2.1568,-2.1548,-2.1567,-2.1582,-2.1609,-2.1637,-2.1659,-2.171,-2.1707,-2.1731,-2.1721,-2.1774,-2.1724,-2.173,-2.1724,-2.1723,-2.1727,-2.1785,-2.1787,-2.1788,-2.1789,0,-2.1581,-2.1574,-2.1599,-2.1622,-2.1643,-2.166,-2.1675,-2.1692,-2.1673,-2.1695,-2.1727,-2.1744,-2.1777,-2.1806,-2.1828,-2.1832,-2.1809,-2.1805,-2.1817,-2.1826,-2.183,-2.183,-2.1664,-2.1802,-2.18,-2.1799,-2.1799,-2.1798,-2.1675,-2.1705,-2.1715,-2.1744,-2.1753,-2.1767,-2.1795,-2.1792,-2.1818,-2.1844,-2.1831,-2.1868,-2.1878,-2.1905,-2.1913,-2.1941,-2.1921,-2.1938,-2.1943,-2.1948,-2.1955,-2.1824,-2.1945,-2.1945,-2.1944,-2.1944,-2.1944,0,-2.1801,-2.1806,-2.1832,-2.1854,-2.1877,-2.1852,-2.1867,-2.1888,-2.1921,-2.1932,-2.1954,-2.1991,-2.2019,-2.2017,-2.2043,-2.2066,-2.2056,-2.2074,-2.2073,-2.2075,-2.1972,-2.1959,-2.2082,-2.2082,-2.2082,-2.2082,-2.2082,-2.2082,-2.187,-2.192,-2.1914,-2.1969,-2.1972,-2.2009,-2.202,-2.2033,-2.2042,-2.2084,-2.2108,-2.2106,-2.2113,-2.2139,-2.2163,-2.2162,-2.2174,-2.2196,-2.2191,-2.2095,-2.2082,-2.2069,-2.2057,-2.2199,-2.2199,-2.2292,-2.2293,-2.2294]},{"header":{"parameterUnit":"m.s-1","parameterCategory":1,"la1":30.2991,"la2":30.254,"lo1":-89.0895,"lo2":-89.0444,"dy":0.0017,"dx":0.0017,"nx":28,"ny":28,"refTime":"2023-11-03T09:00:00:Z","depth":0,"parameterNumber":3,"parameterNumberName":"V-component_of_WINDS"},"data":[0,0,0,0,0,0,0,0,0,0,0,0,0,0,0,0,0,0,0,0,0,0,0,0,0,0,0,0,0,0,0,0,0,0,0,0,0,0,0,0,0,0,0,0,0,0,0,0,0,0,0,0,0,0,0,0,0,0,-2.1255,-2.1254,0,-2.1219,-2.1219,-2.1219,-2.115,-2.1149,-2.1147,-2.1146,-2.1111,-2.1112,-2.1112,0,0,0,0,0,0,0,0,0,0,0,0,0,-2.1264,-2.1264,-2.1255,-2.1254,-2.1254,-2.1219,-2.1219,-2.1218,-2.115,-2.1149,-2.1147,-2.1145,-2.1111,-2.1111,-2.1112,0,0,0,0,0,0,0,0,0,0,0,0,0,-2.1247,-2.1264,-2.1255,-2.1216,-2.1212,-2.122,-2.1219,-2.1218,-2.1151,-2.1149,-2.1147,-2.1145,-2.1111,-2.1111,-2.1112,-2.1156,0,0,-2.1113,-2.1114,0,0,0,0,0,0,0,0,-2.1248,-2.1247,-2.1222,-2.1218,-2.1214,-2.1187,-2.1209,-2.1197,-2.1151,-2.1174,-2.1146,-2.1144,-2.1138,-2.1136,-2.1134,-2.1154,-2.1152,-2.1113,-2.1114,-2.1114,-2.1114,0,0,0,0,0,0,0,-2.1249,-2.1248,-2.1241,-2.1222,-2.1217,-2.12,-2.1195,-2.1207,-2.1168,-2.1172,-2.1167,-2.1163,-2.1136,-2.1134,-2.1133,-2.1152,-2.1113,-2.1114,-2.1114,-2.1114,-2.1205,-2.1207,0,0,0,0,0,0,-2.1256,-2.125,-2.1242,-2.124,-2.1226,-2.1201,-2.1196,-2.1198,-2.1167,-2.1161,-2.1165,-2.116,-2.1134,-2.1132,-2.1131,-2.118,-2.1114,-2.1114,-2.1115,-2.1203,-2.1205,-2.1208,0,0,0,0,0,0,-2.1257,-2.1256,-2.1243,-2.1243,-2.124,-2.1203,-2.1206,-2.1198,-2.1196,-2.1162,-2.1155,-2.117,-2.1132,-2.1131,-2.115,-2.1178,-2.1115,-2.1115,-2.12,-2.1204,-2.1206,-2.1278,0,0,0,0,0,0,-2.1257,-2.1257,-2.1273,-2.1244,-2.1241,-2.1263,-2.1207,-2.1199,-2.1197,-2.119,-2.1166,-2.1159,-2.1131,-2.1149,-2.115,-2.1177,-2.1116,-2.1198,-2.1202,-2.1205,-2.1273,-2.1283,-2.1292,0,0,0,0,0,-2.1258,-2.1295,-2.1274,-2.1274,-2.126,-2.1264,-2.1262,-2.1228,-2.12,-2.1216,-2.1194,-2.116,-2.1175,-2.1152,-2.1152,-2.118,-2.1196,-2.1201,-2.1205,-2.1269,-2.1281,-2.1292,0,0,0,0,0,0,-2.1329,-2.129,-2.1267,-2.1296,-2.1284,-2.1253,-2.1272,-2.1242,-2.1238,-2.1232,-2.119,-2.1185,-2.121,-2.1197,-2.1172,-2.122,-2.118,-2.1185,-2.1228,-2.124,-2.1249,-2.1252,-2.1116,0,0,0,0,0,-2.1348,-2.1354,-2.132,-2.1349,-2.1344,-2.1309,-2.131,-2.1284,-2.127,-2.1265,-2.1244,-2.1232,-2.1234,-2.1236,-2.1236,-2.1271,-2.1264,-2.129,-2.1299,-2.1307,-2.1313,-2.133,-2.1341,-2.1223,-2.1223,-2.1223,0,0,-2.1387,-2.1367,-2.1374,-2.1363,-2.135,-2.1358,-2.1305,-2.1316,-2.1321,-2.1267,-2.1283,-2.1268,-2.1251,-2.1279,-2.129,-2.1269,-2.1343,-2.1313,-2.132,-2.1321,-2.1336,-2.1347,-2.1357,-2.1226,-2.1226,-2.1225,0,0,-2.1463,-2.1448,-2.147,-2.1459,-2.144,-2.1417,-2.1422,-2.1395,-2.1383,-2.1399,-2.1357,-2.1363,-2.1367,-2.1357,-2.1352,-2.1423,-2.1392,-2.1424,-2.1474,-2.1492,-2.1501,-2.1509,-2.1534,-2.1544,-2.1429,-2.143,-2.143,0,-2.1514,-2.1524,-2.1486,-2.1498,-2.1495,-2.1445,-2.1467,-2.1458,-2.1441,-2.1439,-2.1416,-2.1419,-2.1404,-2.1428,-2.1446,-2.1443,-2.1448,-2.1427,-2.1503,-2.151,-2.1517,-2.1541,-2.1551,-2.1434,-2.1433,-2.1433,-2.1432,0,-2.1588,-2.1595,-2.1616,-2.1599,-2.1598,-2.1616,-2.158,-2.1583,-2.1558,-2.1537,-2.1553,-2.1534,-2.1528,-2.1532,-2.1507,-2.1553,-2.154,-2.151,-2.1469,-2.1533,-2.1555,-2.1563,-2.1439,-2.1438,-2.1437,-2.1436,0,0,-2.1708,-2.167,-2.1678,-2.167,-2.1646,-2.1651,-2.1666,-2.166,-2.1664,-2.1653,-2.1665,-2.1669,-2.1641,-2.1636,-2.1609,-2.1624,-2.1682,-2.1592,-2.1591,-2.161,-2.173,-2.1753,-2.1764,-2.1661,-2.1662,-2.1663,-2.1731,0,-2.1779,-2.1802,-2.1768,-2.1799,-2.1806,-2.1758,-2.1771,-2.1757,-2.1738,-2.174,-2.1719,-2.1722,-2.1685,-2.1681,-2.1694,-2.1672,-2.1705,-2.1667,-2.1671,-2.1672,-2.1678,-2.1775,-2.18,-2.1865,-2.174,-2.1741,-2.1742,0,-2.1865,-2.1858,-2.189,-2.1863,-2.1864,-2.1877,-2.1868,-2.1871,-2.1855,-2.1839,-2.1833,-2.1802,-2.1814,-2.1774,-2.1791,-2.1765,-2.1765,-2.1755,-2.1756,-2.1756,-2.1712,-2.1778,-2.1885,-2.1895,-2.1755,-2.1754,-2.1753,0,-2.195,-2.1948,-2.1967,-2.1962,-2.1931,-2.194,-2.1928,-2.1909,-2.1908,-2.1901,-2.1899,-2.1894,-2.1891,-2.1887,-2.1855,-2.1828,-2.1876,-2.1833,-2.1864,-2.1865,-2.1877,-2.1877,-2.1986,-2.1876,-2.1876,-2.1876,-2.1876,0,-2.2032,-2.2054,-2.2005,-2.2016,-2.2039,-2.1999,-2.2022,-2.2005,-2.1989,-2.1996,-2.1954,-2.1962,-2.1919,-2.1922,-2.1897,-2.1915,-2.1914,-2.1902,-2.1895,-2.1906,-2.1908,-2.1906,-2.1901,-2.1878,-2.1878,-2.1877,-2.1877,0,-2.2131,-2.2099,-2.2116,-2.2085,-2.2078,-2.2096,-2.2069,-2.2079,-2.2056,-2.2066,-2.2066,-2.2031,-2.2032,-2.1999,-2.1995,-2.1977,-2.2007,-2.1992,-2.2013,-2.2008,-2.2041,-2.2039,-2.2153,-2.2166,-2.2048,-2.2049,-2.205,0,-2.2187,-2.2202,-2.2172,-2.2174,-2.2163,-2.2167,-2.2165,-2.2126,-2.2126,-2.2107,-2.2119,-2.2117,-2.2114,-2.2118,-2.2092,-2.2088,-2.2073,-2.2113,-2.2072,-2.2082,-2.2074,-2.2074,-2.2075,-2.2122,-2.2124,-2.2125,-2.2126,0,-2.2288,-2.2271,-2.227,-2.2263,-2.2261,-2.2254,-2.2244,-2.2248,-2.2205,-2.2207,-2.2208,-2.2205,-2.22,-2.2198,-2.2189,-2.2176,-2.2144,-2.2139,-2.2146,-2.2158,-2.2169,-2.2164,-2.2037,-2.2137,-2.2136,-2.2135,-2.2134,-2.2134,-2.2367,-2.2378,-2.2359,-2.2358,-2.2347,-2.2338,-2.2345,-2.2323,-2.2323,-2.2315,-2.2292,-2.2297,-2.2279,-2.2264,-2.2254,-2.2257,-2.2237,-2.2247,-2.225,-2.2253,-2.2259,-2.2168,-2.2255,-2.2255,-2.2254,-2.2254,-2.2254,0,-2.2466,-2.2451,-2.2451,-2.2438,-2.2438,-2.2407,-2.2394,-2.2396,-2.2401,-2.2387,-2.2384,-2.2385,-2.2383,-2.2356,-2.2351,-2.2359,-2.2344,-2.2359,-2.2358,-2.2356,-2.2277,-2.2272,-2.2371,-2.2371,-2.2371,-2.2371,-2.2371,-2.2371,-2.2518,-2.2535,-2.2516,-2.2527,-2.2512,-2.2516,-2.2511,-2.2503,-2.2491,-2.2494,-2.2492,-2.2475,-2.2456,-2.2449,-2.2446,-2.2438,-2.2438,-2.2458,-2.2446,-2.2373,-2.2362,-2.2351,-2.2345,-2.2458,-2.2459,-2.2524,-2.2524,-2.2525]}]]